Time,TemperatureF,DewpointF,PressureIn,WindDirection,WindDirectionDegrees,WindSpeedMPH,WindSpeedGustMPH,Humidity,HourlyPrecipIn,Conditions,Clouds,dailyrainin,SoftwareType,DateUTC
2013-06-30 00:00:00,77.2,72.0,29.72,South,175,0.0,1.0,84,0.00,,---,0.00,VWS V14.01,2013-06-30 04:00:00,
2013-06-30 00:01:00,77.2,72.0,29.72,South,175,0.0,0.0,84,0.00,,---,0.00,VWS V14.01,2013-06-30 04:01:00,
2013-06-30 00:06:00,77.0,72.2,29.72,South,176,0.0,0.0,85,0.00,,---,0.00,VWS V14.01,2013-06-30 04:06:00,
2013-06-30 00:11:00,77.0,72.2,29.72,South,176,0.0,0.0,85,0.00,,---,0.00,VWS V14.01,2013-06-30 04:11:00,
2013-06-30 00:16:00,76.8,72.3,29.71,South,175,0.0,0.0,86,0.00,,---,0.00,VWS V14.01,2013-06-30 04:16:00,
2013-06-30 00:21:00,76.7,72.2,29.71,South,175,0.0,0.0,86,0.00,,---,0.00,VWS V14.01,2013-06-30 04:21:00,
2013-06-30 00:26:00,76.5,72.0,29.71,South,176,0.0,0.0,86,0.00,,---,0.00,VWS V14.01,2013-06-30 04:26:00,
2013-06-30 00:30:00,76.5,72.3,29.71,South,176,0.0,0.0,87,0.00,,---,0.00,VWS V14.01,2013-06-30 04:30:00,
2013-06-30 00:31:00,76.5,72.3,29.71,South,175,0.0,0.0,87,0.00,,---,0.00,VWS V14.01,2013-06-30 04:31:00,
2013-06-30 00:36:00,76.3,72.2,29.71,South,175,0.0,1.0,87,0.00,,---,0.00,VWS V14.01,2013-06-30 04:36:00,
2013-06-30 00:41:00,76.3,72.5,29.71,SSE,162,0.0,1.0,88,0.00,,---,0.00,VWS V14.01,2013-06-30 04:41:00,
2013-06-30 00:46:00,76.1,72.3,29.71,SSE,162,0.0,1.0,88,0.00,,---,0.00,VWS V14.01,2013-06-30 04:46:00,
2013-06-30 00:51:00,76.1,72.3,29.71,SSE,162,0.0,1.0,88,0.00,,---,0.00,VWS V14.01,2013-06-30 04:51:00,
2013-06-30 00:56:00,76.0,72.2,29.71,SSE,162,0.0,1.0,88,0.00,,---,0.00,VWS V14.01,2013-06-30 04:56:00,
2013-06-30 01:00:00,76.0,72.2,29.70,SSE,162,0.0,1.0,88,0.00,,---,0.00,VWS V14.01,2013-06-30 05:00:00,
2013-06-30 01:01:00,76.0,72.2,29.70,SSE,162,0.0,0.0,88,0.00,,---,0.00,VWS V14.01,2013-06-30 05:01:00,
2013-06-30 01:06:00,75.8,72.3,29.70,SSE,162,0.0,0.0,89,0.00,,---,0.00,VWS V14.01,2013-06-30 05:06:00,
2013-06-30 01:11:00,75.8,72.3,29.70,SSE,162,0.0,0.0,89,0.00,,---,0.00,VWS V14.01,2013-06-30 05:11:00,
2013-06-30 01:16:00,75.6,72.1,29.70,SSE,162,0.0,0.0,89,0.00,,---,0.00,VWS V14.01,2013-06-30 05:16:00,
2013-06-30 01:21:00,75.6,72.1,29.70,SSE,162,0.0,0.0,89,0.00,,---,0.00,VWS V14.01,2013-06-30 05:21:00,
2013-06-30 01:26:00,75.4,72.3,29.70,SSE,162,0.0,0.0,90,0.00,,---,0.00,VWS V14.01,2013-06-30 05:26:00,
2013-06-30 01:30:00,75.4,72.3,29.70,SSE,162,0.0,0.0,90,0.00,,---,0.00,VWS V14.01,2013-06-30 05:30:00,
2013-06-30 01:31:00,75.4,72.3,29.70,SSE,162,0.0,0.0,90,0.00,,---,0.00,VWS V14.01,2013-06-30 05:31:00,
2013-06-30 01:36:00,75.3,72.2,29.70,SSE,162,0.0,0.0,90,0.00,,---,0.00,VWS V14.01,2013-06-30 05:36:00,
2013-06-30 01:41:00,75.3,72.5,29.70,SSE,162,0.0,0.0,91,0.00,,---,0.00,VWS V14.01,2013-06-30 05:41:00,
2013-06-30 01:46:00,75.3,72.5,29.70,SSE,162,0.0,0.0,91,0.00,,---,0.00,VWS V14.01,2013-06-30 05:46:00,
2013-06-30 01:51:00,75.1,72.3,29.70,SSE,162,0.0,0.0,91,0.00,,---,0.00,VWS V14.01,2013-06-30 05:51:00,
2013-06-30 01:56:00,75.1,72.3,29.70,SSE,162,0.0,0.0,91,0.00,,---,0.00,VWS V14.01,2013-06-30 05:56:00,
2013-06-30 02:00:00,75.1,72.6,29.70,SSE,162,0.0,0.0,92,0.00,,---,0.00,VWS V14.01,2013-06-30 06:00:00,
2013-06-30 02:01:00,75.3,72.8,29.70,SSE,162,0.0,0.0,92,0.00,,---,0.00,VWS V14.01,2013-06-30 06:01:00,
2013-06-30 02:06:00,75.3,72.8,29.70,SSE,162,0.0,0.0,92,0.00,,---,0.00,VWS V14.01,2013-06-30 06:06:00,
2013-06-30 02:11:00,75.4,72.9,29.70,SSE,162,0.0,0.0,92,0.00,,---,0.00,VWS V14.01,2013-06-30 06:11:00,
2013-06-30 02:16:00,75.4,72.9,29.70,SSE,152,2.0,2.0,92,0.00,,---,0.00,VWS V14.01,2013-06-30 06:16:00,
2013-06-30 02:21:00,75.4,72.9,29.70,SSE,154,0.0,2.0,92,0.00,,---,0.00,VWS V14.01,2013-06-30 06:21:00,
2013-06-30 02:26:00,75.4,72.9,29.70,SSE,154,0.0,2.0,92,0.00,,---,0.00,VWS V14.01,2013-06-30 06:26:00,
2013-06-30 02:30:00,75.4,72.9,29.70,SSE,154,0.0,2.0,92,0.00,,---,0.00,VWS V14.01,2013-06-30 06:30:00,
2013-06-30 02:31:00,75.4,72.9,29.70,SSE,154,0.0,0.0,92,0.00,,---,0.00,VWS V14.01,2013-06-30 06:31:00,
2013-06-30 02:36:00,75.4,73.2,29.70,SSE,154,0.0,0.0,93,0.00,,---,0.00,VWS V14.01,2013-06-30 06:36:00,
2013-06-30 02:41:00,75.4,73.2,29.70,SSE,154,0.0,0.0,93,0.00,,---,0.00,VWS V14.01,2013-06-30 06:41:00,
2013-06-30 02:47:00,75.4,73.2,29.70,SSE,154,0.0,0.0,93,0.00,,---,0.00,VWS V14.01,2013-06-30 06:47:00,
2013-06-30 02:52:00,75.4,73.2,29.70,SSE,154,0.0,0.0,93,0.00,,---,0.00,VWS V14.01,2013-06-30 06:52:00,
2013-06-30 02:57:00,75.4,73.2,29.70,SSE,154,1.0,1.0,93,0.00,,---,0.00,VWS V14.01,2013-06-30 06:57:00,
2013-06-30 03:00:00,75.4,73.2,29.69,SSE,151,0.0,2.0,93,0.00,,---,0.00,VWS V14.01,2013-06-30 07:00:00,
2013-06-30 03:02:00,75.4,73.2,29.69,SSE,151,0.0,0.0,93,0.00,,---,0.00,VWS V14.01,2013-06-30 07:02:00,
2013-06-30 03:07:00,75.4,73.2,29.69,SSE,151,0.0,0.0,93,0.00,,---,0.00,VWS V14.01,2013-06-30 07:07:00,
2013-06-30 03:12:00,75.4,73.6,29.69,SSE,151,0.0,0.0,94,0.00,,---,0.00,VWS V14.01,2013-06-30 07:12:00,
2013-06-30 03:17:00,75.6,73.8,29.69,SSE,148,0.0,0.0,94,0.00,,---,0.00,VWS V14.01,2013-06-30 07:17:00,
2013-06-30 03:22:00,75.6,73.8,29.69,SSE,148,0.0,0.0,94,0.00,,---,0.00,VWS V14.01,2013-06-30 07:22:00,
2013-06-30 03:27:00,75.6,73.8,29.69,SSE,148,0.0,0.0,94,0.00,,---,0.00,VWS V14.01,2013-06-30 07:27:00,
2013-06-30 03:30:00,75.4,73.6,29.69,SSE,148,0.0,0.0,94,0.00,,---,0.00,VWS V14.01,2013-06-30 07:30:00,
2013-06-30 03:32:00,75.6,73.8,29.69,SSE,148,0.0,0.0,94,0.00,,---,0.00,VWS V14.01,2013-06-30 07:32:00,
2013-06-30 03:37:00,75.6,73.8,29.69,SSE,148,0.0,0.0,94,0.00,,---,0.00,VWS V14.01,2013-06-30 07:37:00,
2013-06-30 03:42:00,75.4,73.6,29.69,SSE,148,0.0,0.0,94,0.00,,---,0.00,VWS V14.01,2013-06-30 07:42:00,
2013-06-30 03:47:00,75.4,73.9,29.69,SE,138,0.0,0.0,95,0.00,,---,0.00,VWS V14.01,2013-06-30 07:47:00,
2013-06-30 03:52:00,75.3,73.8,29.69,SE,138,0.0,0.0,95,0.00,,---,0.00,VWS V14.01,2013-06-30 07:52:00,
2013-06-30 03:57:00,75.3,73.8,29.69,SE,138,0.0,0.0,95,0.00,,---,0.00,VWS V14.01,2013-06-30 07:57:00,
2013-06-30 04:00:00,75.3,73.8,29.69,SE,138,0.0,0.0,95,0.00,,---,0.00,VWS V14.01,2013-06-30 08:00:00,
2013-06-30 04:02:00,75.3,73.8,29.69,SE,138,0.0,0.0,95,0.00,,---,0.00,VWS V14.01,2013-06-30 08:02:00,
2013-06-30 04:07:00,75.1,73.6,29.69,SE,138,0.0,0.0,95,0.00,,---,0.00,VWS V14.01,2013-06-30 08:07:00,
2013-06-30 04:12:00,75.1,73.6,29.69,SE,138,0.0,0.0,95,0.00,,---,0.00,VWS V14.01,2013-06-30 08:12:00,
2013-06-30 04:17:00,75.1,73.9,29.69,SE,138,0.0,0.0,96,0.00,,---,0.00,VWS V14.01,2013-06-30 08:17:00,
2013-06-30 04:22:00,75.1,73.9,29.69,SE,138,0.0,0.0,96,0.00,,---,0.00,VWS V14.01,2013-06-30 08:22:00,
2013-06-30 04:27:00,75.1,73.9,29.69,SE,138,0.0,0.0,96,0.00,,---,0.00,VWS V14.01,2013-06-30 08:27:00,
2013-06-30 04:30:00,75.1,73.9,29.69,SE,138,0.0,0.0,96,0.00,,---,0.00,VWS V14.01,2013-06-30 08:30:00,
2013-06-30 04:32:00,74.9,73.7,29.69,SE,138,0.0,0.0,96,0.00,,---,0.00,VWS V14.01,2013-06-30 08:32:00,
2013-06-30 04:37:00,74.9,73.7,29.69,SE,138,0.0,0.0,96,0.00,,---,0.00,VWS V14.01,2013-06-30 08:37:00,
2013-06-30 04:42:00,74.9,73.7,29.69,SE,138,0.0,0.0,96,0.00,,---,0.00,VWS V14.01,2013-06-30 08:42:00,
2013-06-30 04:47:00,74.7,73.5,29.69,SE,138,0.0,0.0,96,0.00,,---,0.00,VWS V14.01,2013-06-30 08:47:00,
2013-06-30 04:52:00,74.7,73.5,29.69,SE,138,0.0,0.0,96,0.00,,---,0.00,VWS V14.01,2013-06-30 08:52:00,
2013-06-30 04:57:00,74.7,73.5,29.69,SE,138,0.0,0.0,96,0.00,,---,0.00,VWS V14.01,2013-06-30 08:57:00,
2013-06-30 05:00:00,74.9,73.7,29.70,SE,143,0.0,0.0,96,0.00,,---,0.00,VWS V14.01,2013-06-30 09:00:00,
2013-06-30 05:02:00,74.9,74.0,29.70,SSE,165,0.0,0.0,97,0.00,,---,0.00,VWS V14.01,2013-06-30 09:02:00,
2013-06-30 05:07:00,74.9,73.7,29.70,SSW,213,0.0,0.0,96,0.00,,---,0.00,VWS V14.01,2013-06-30 09:07:00,
2013-06-30 05:12:00,74.9,73.7,29.70,SSW,213,0.0,0.0,96,0.00,,---,0.00,VWS V14.01,2013-06-30 09:12:00,
2013-06-30 05:17:00,74.9,73.7,29.70,South,169,0.0,0.0,96,0.00,,---,0.00,VWS V14.01,2013-06-30 09:17:00,
2013-06-30 05:22:00,74.9,73.7,29.70,South,169,0.0,0.0,96,0.00,,---,0.00,VWS V14.01,2013-06-30 09:22:00,
2013-06-30 05:27:00,74.9,74.0,29.70,South,178,0.0,0.0,97,0.00,,---,0.00,VWS V14.01,2013-06-30 09:27:00,
2013-06-30 05:30:00,74.9,74.0,29.70,South,178,0.0,3.0,97,0.00,,---,0.00,VWS V14.01,2013-06-30 09:30:00,
2013-06-30 05:32:00,74.9,74.0,29.70,South,178,0.0,0.0,97,0.00,,---,0.00,VWS V14.01,2013-06-30 09:32:00,
2013-06-30 05:37:00,74.9,73.7,29.70,South,178,0.0,0.0,96,0.00,,---,0.00,VWS V14.01,2013-06-30 09:37:00,
2013-06-30 05:42:00,74.9,73.7,29.70,South,178,0.0,1.0,96,0.00,,---,0.00,VWS V14.01,2013-06-30 09:42:00,
2013-06-30 05:47:00,74.9,74.0,29.70,South,178,0.0,1.0,97,0.00,,---,0.00,VWS V14.01,2013-06-30 09:47:00,
2013-06-30 05:52:00,75.1,74.2,29.70,SSE,150,0.0,1.0,97,0.00,,---,0.00,VWS V14.01,2013-06-30 09:52:00,
2013-06-30 05:57:00,74.9,74.0,29.70,SSE,151,0.0,2.0,97,0.00,,---,0.00,VWS V14.01,2013-06-30 09:57:00,
2013-06-30 06:00:00,74.9,74.0,29.71,SSE,158,0.0,2.0,97,0.00,,---,0.00,VWS V14.01,2013-06-30 10:00:00,
2013-06-30 06:02:00,74.9,74.0,29.71,SSE,151,0.0,0.0,97,0.00,,---,0.00,VWS V14.01,2013-06-30 10:02:00,
2013-06-30 06:07:00,74.9,74.0,29.71,SSE,151,0.0,0.0,97,0.00,,---,0.00,VWS V14.01,2013-06-30 10:07:00,
2013-06-30 06:12:00,74.9,74.0,29.71,SSE,151,0.0,0.0,97,0.00,,---,0.00,VWS V14.01,2013-06-30 10:12:00,
2013-06-30 06:17:00,74.7,73.8,29.72,SSE,151,0.0,0.0,97,0.00,,---,0.00,VWS V14.01,2013-06-30 10:17:00,
2013-06-30 06:22:00,74.9,74.0,29.72,SSE,151,0.0,2.0,97,0.00,,---,0.00,VWS V14.01,2013-06-30 10:22:00,
2013-06-30 06:27:00,74.7,73.8,29.72,SSE,151,0.0,2.0,97,0.00,,---,0.00,VWS V14.01,2013-06-30 10:27:00,
2013-06-30 06:30:00,74.7,73.8,29.72,SSE,151,0.0,2.0,97,0.00,,---,0.00,VWS V14.01,2013-06-30 10:30:00,
2013-06-30 06:33:00,74.7,73.8,29.72,SSE,151,0.0,0.0,97,0.00,,---,0.00,VWS V14.01,2013-06-30 10:33:00,
2013-06-30 06:38:00,74.7,73.8,29.72,SSE,151,0.0,0.0,97,0.00,,---,0.00,VWS V14.01,2013-06-30 10:38:00,
2013-06-30 06:43:00,74.7,73.8,29.72,SSE,151,0.0,0.0,97,0.00,,---,0.00,VWS V14.01,2013-06-30 10:43:00,
2013-06-30 06:48:00,74.6,73.7,29.73,SSE,151,0.0,0.0,97,0.00,,---,0.00,VWS V14.01,2013-06-30 10:48:00,
2013-06-30 06:53:00,74.6,73.7,29.73,SSE,151,0.0,0.0,97,0.00,,---,0.00,VWS V14.01,2013-06-30 10:53:00,
2013-06-30 06:58:00,74.7,74.1,29.73,SSE,151,0.0,0.0,98,0.00,,---,0.00,VWS V14.01,2013-06-30 10:58:00,
2013-06-30 07:00:00,74.7,74.1,29.73,SSE,151,0.0,0.0,98,0.00,,---,0.00,VWS V14.01,2013-06-30 11:00:00,
2013-06-30 07:03:00,74.7,74.1,29.73,SSE,151,0.0,0.0,98,0.00,,---,0.00,VWS V14.01,2013-06-30 11:03:00,
2013-06-30 07:08:00,74.7,74.1,29.73,SSE,151,0.0,0.0,98,0.00,,---,0.00,VWS V14.01,2013-06-30 11:08:00,
2013-06-30 07:13:00,74.9,74.3,29.73,SSE,151,0.0,0.0,98,0.00,,---,0.00,VWS V14.01,2013-06-30 11:13:00,
2013-06-30 07:18:00,74.9,74.3,29.73,SSE,151,0.0,0.0,98,0.00,,---,0.00,VWS V14.01,2013-06-30 11:18:00,
2013-06-30 07:23:00,75.1,74.5,29.73,SSE,151,0.0,3.0,98,0.00,,---,0.00,VWS V14.01,2013-06-30 11:23:00,
2013-06-30 07:28:00,75.3,74.7,29.73,SSE,151,0.0,3.0,98,0.00,,---,0.00,VWS V14.01,2013-06-30 11:28:00,
2013-06-30 07:30:00,75.3,74.7,29.73,SSE,151,0.0,3.0,98,0.00,,---,0.00,VWS V14.01,2013-06-30 11:30:00,
2013-06-30 07:33:00,75.3,74.4,29.73,SSE,151,0.0,0.0,97,0.00,,---,0.00,VWS V14.01,2013-06-30 11:33:00,
2013-06-30 07:38:00,75.4,74.5,29.73,SSE,151,0.0,0.0,97,0.00,,---,0.00,VWS V14.01,2013-06-30 11:38:00,
2013-06-30 07:43:00,75.4,74.5,29.73,SSE,151,0.0,1.0,97,0.00,,---,0.00,VWS V14.01,2013-06-30 11:43:00,
2013-06-30 07:48:00,75.8,74.9,29.73,South,179,0.0,2.0,97,0.00,,---,0.00,VWS V14.01,2013-06-30 11:48:00,
2013-06-30 07:53:00,76.0,75.1,29.73,SSW,198,0.0,2.0,97,0.00,,---,0.00,VWS V14.01,2013-06-30 11:53:00,
2013-06-30 07:58:00,76.3,75.1,29.73,SSW,199,0.0,2.0,96,0.00,,---,0.00,VWS V14.01,2013-06-30 11:58:00,
2013-06-30 08:00:00,76.3,75.1,29.73,SE,140,0.0,2.0,96,0.00,,---,0.00,VWS V14.01,2013-06-30 12:00:00,
2013-06-30 08:03:00,76.3,75.1,29.73,SSE,165,0.0,0.0,96,0.00,,---,0.00,VWS V14.01,2013-06-30 12:03:00,
2013-06-30 08:08:00,76.7,75.2,29.73,SSE,165,0.0,0.0,95,0.00,,---,0.00,VWS V14.01,2013-06-30 12:08:00,
2013-06-30 08:13:00,76.8,75.3,29.73,SSE,162,0.0,0.0,95,0.00,,---,0.00,VWS V14.01,2013-06-30 12:13:00,
2013-06-30 08:18:00,77.2,75.7,29.73,South,178,0.0,0.0,95,0.00,,---,0.00,VWS V14.01,2013-06-30 12:18:00,
2013-06-30 08:23:00,77.6,76.1,29.73,SSW,200,0.0,0.0,95,0.00,,---,0.00,VWS V14.01,2013-06-30 12:23:00,
2013-06-30 08:28:00,77.9,75.7,29.73,West,265,0.0,0.0,93,0.00,,---,0.00,VWS V14.01,2013-06-30 12:28:00,
2013-06-30 08:30:00,77.3,74.8,29.74,West,270,0.0,1.0,92,0.00,,---,0.00,VWS V14.01,2013-06-30 12:30:00,
2013-06-30 08:33:00,78.5,76.0,29.74,West,265,0.0,0.0,92,0.00,,---,0.00,VWS V14.01,2013-06-30 12:33:00,
2013-06-30 08:38:00,78.8,75.6,29.74,South,169,3.0,6.0,90,0.00,,---,0.00,VWS V14.01,2013-06-30 12:38:00,
2013-06-30 08:43:00,78.8,75.3,29.74,South,171,0.0,6.0,89,0.00,,---,0.00,VWS V14.01,2013-06-30 12:43:00,
2013-06-30 08:48:00,79.4,76.2,29.73,SE,144,0.0,6.0,90,0.00,,---,0.00,VWS V14.01,2013-06-30 12:48:00,
2013-06-30 08:53:00,79.4,75.5,29.73,SE,144,0.0,6.0,88,0.00,,---,0.00,VWS V14.01,2013-06-30 12:53:00,
2013-06-30 08:58:00,79.6,75.4,29.73,SSW,202,0.0,6.0,87,0.00,,---,0.00,VWS V14.01,2013-06-30 12:58:00,
2013-06-30 09:00:00,79.8,75.6,29.74,SSW,199,0.0,6.0,87,0.00,,---,0.00,VWS V14.01,2013-06-30 13:00:00,
2013-06-30 09:03:00,80.1,76.2,29.74,NW,309,0.0,3.0,88,0.00,,---,0.00,VWS V14.01,2013-06-30 13:03:00,
2013-06-30 09:08:00,80.5,76.3,29.74,SSW,210,1.0,6.0,87,0.00,,---,0.00,VWS V14.01,2013-06-30 13:08:00,
2013-06-30 09:13:00,80.7,76.1,29.74,SSW,195,0.0,6.0,86,0.00,,---,0.00,VWS V14.01,2013-06-30 13:13:00,
2013-06-30 09:18:00,81.1,76.2,29.74,SSE,162,0.0,6.0,85,0.00,,---,0.00,VWS V14.01,2013-06-30 13:18:00,
2013-06-30 09:23:00,81.2,75.9,29.74,ESE,121,0.0,6.0,84,0.00,,---,0.00,VWS V14.01,2013-06-30 13:23:00,
2013-06-30 09:28:00,81.8,76.1,29.74,ESE,109,0.0,6.0,83,0.00,,---,0.00,VWS V14.01,2013-06-30 13:28:00,
2013-06-30 09:30:00,81.0,75.3,29.74,SSE,158,0.0,6.0,83,0.00,,---,0.00,VWS V14.01,2013-06-30 13:30:00,
2013-06-30 09:33:00,82.0,76.3,29.74,SSE,151,0.0,0.0,83,0.00,,---,0.00,VWS V14.01,2013-06-30 13:33:00,
2013-06-30 09:38:00,82.2,75.8,29.74,NW,311,0.0,4.0,81,0.00,,---,0.00,VWS V14.01,2013-06-30 13:38:00,
2013-06-30 09:43:00,82.4,76.4,29.74,SSE,162,0.0,4.0,82,0.00,,---,0.00,VWS V14.01,2013-06-30 13:43:00,
2013-06-30 09:48:00,83.0,76.6,29.74,West,271,0.0,4.0,81,0.00,,---,0.00,VWS V14.01,2013-06-30 13:48:00,
2013-06-30 09:53:00,83.4,76.6,29.74,SSE,152,0.0,4.0,80,0.00,,---,0.00,VWS V14.01,2013-06-30 13:53:00,
2013-06-30 09:58:00,83.6,76.4,29.74,SSE,148,0.0,4.0,79,0.00,,---,0.00,VWS V14.01,2013-06-30 13:58:00,
2013-06-30 10:00:00,83.6,76.4,29.74,SSE,148,0.0,4.0,79,0.00,,---,0.00,VWS V14.01,2013-06-30 14:00:00,
2013-06-30 10:03:00,83.8,76.2,29.74,South,178,0.0,0.0,78,0.00,,---,0.00,VWS V14.01,2013-06-30 14:03:00,
2013-06-30 10:08:00,84.0,76.4,29.74,ENE,65,0.0,0.0,78,0.00,,---,0.00,VWS V14.01,2013-06-30 14:08:00,
2013-06-30 10:13:00,84.1,76.5,29.74,NNE,16,0.0,0.0,78,0.00,,---,0.00,VWS V14.01,2013-06-30 14:13:00,
2013-06-30 10:18:00,84.5,76.1,29.73,North,0,0.0,0.0,76,0.00,,---,0.00,VWS V14.01,2013-06-30 14:18:00,
2013-06-30 10:23:00,84.5,75.7,29.73,SSE,157,0.0,2.0,75,0.00,,---,0.00,VWS V14.01,2013-06-30 14:23:00,
2013-06-30 10:28:00,84.5,75.7,29.73,ENE,78,0.0,2.0,75,0.00,,---,0.00,VWS V14.01,2013-06-30 14:28:00,
2013-06-30 10:30:00,84.5,75.7,29.73,SSE,167,0.0,2.0,75,0.00,,---,0.00,VWS V14.01,2013-06-30 14:30:00,
2013-06-30 10:33:00,84.7,75.9,29.73,NE,41,0.0,0.0,75,0.00,,---,0.00,VWS V14.01,2013-06-30 14:33:00,
2013-06-30 10:38:00,85.3,75.2,29.73,SW,230,0.0,0.0,72,0.00,,---,0.00,VWS V14.01,2013-06-30 14:38:00,
2013-06-30 10:43:00,85.7,76.5,29.73,ENE,59,0.0,0.0,74,0.00,,---,0.00,VWS V14.01,2013-06-30 14:43:00,
2013-06-30 10:48:00,85.9,75.8,29.73,ENE,59,0.0,0.0,72,0.00,,---,0.00,VWS V14.01,2013-06-30 14:48:00,
2013-06-30 10:53:00,85.9,75.4,29.73,SE,144,0.0,1.0,71,0.00,,---,0.00,VWS V14.01,2013-06-30 14:53:00,
2013-06-30 10:58:00,85.9,76.2,29.73,SW,232,0.0,2.0,73,0.00,,---,0.00,VWS V14.01,2013-06-30 14:58:00,
2013-06-30 11:00:00,86.1,75.2,29.73,NW,304,0.0,2.0,70,0.00,,---,0.00,VWS V14.01,2013-06-30 15:00:00,
2013-06-30 11:03:00,86.1,75.2,29.73,ESE,116,0.0,0.0,70,0.00,,---,0.00,VWS V14.01,2013-06-30 15:03:00,
2013-06-30 11:08:00,86.5,75.6,29.73,SW,215,0.0,6.0,70,0.00,,---,0.00,VWS V14.01,2013-06-30 15:08:00,
2013-06-30 11:13:00,86.7,74.9,29.73,South,182,0.0,6.0,68,0.00,,---,0.00,VWS V14.01,2013-06-30 15:13:00,
2013-06-30 11:18:00,87.4,75.6,29.73,WSW,240,0.0,6.0,68,0.00,,---,0.00,VWS V14.01,2013-06-30 15:18:00,
2013-06-30 11:23:00,87.4,74.7,29.73,SE,143,0.0,6.0,66,0.00,,---,0.00,VWS V14.01,2013-06-30 15:23:00,
2013-06-30 11:28:00,87.2,74.9,29.73,SSE,157,5.0,6.0,67,0.00,,---,0.00,VWS V14.01,2013-06-30 15:28:00,
2013-06-30 11:30:00,87.2,74.5,29.73,South,179,0.0,6.0,66,0.00,,---,0.00,VWS V14.01,2013-06-30 15:30:00,
2013-06-30 11:33:00,87.0,74.3,29.73,SE,134,0.0,0.0,66,0.00,,---,0.00,VWS V14.01,2013-06-30 15:33:00,
2013-06-30 11:38:00,87.4,74.2,29.73,SSE,154,1.0,5.0,65,0.00,,---,0.00,VWS V14.01,2013-06-30 15:38:00,
2013-06-30 11:43:00,88.0,74.8,29.73,SE,144,0.0,5.0,65,0.00,,---,0.00,VWS V14.01,2013-06-30 15:43:00,
2013-06-30 11:48:00,88.2,74.5,29.72,SSE,152,1.0,6.0,64,0.00,,---,0.00,VWS V14.01,2013-06-30 15:48:00,
2013-06-30 11:53:00,88.8,75.1,29.72,South,174,0.0,6.0,64,0.00,,---,0.00,VWS V14.01,2013-06-30 15:53:00,
2013-06-30 11:58:00,89.3,74.1,29.72,SSE,151,0.0,6.0,61,0.00,,---,0.00,VWS V14.01,2013-06-30 15:58:00,
2013-06-30 12:00:00,89.3,74.6,29.72,SSE,161,3.0,6.0,62,0.00,,---,0.00,VWS V14.01,2013-06-30 16:00:00,
2013-06-30 12:03:00,89.3,75.1,29.72,SSE,154,0.0,3.0,63,0.00,,---,0.00,VWS V14.01,2013-06-30 16:03:00,
2013-06-30 12:08:00,89.9,74.7,29.72,WNW,294,0.0,3.0,61,0.00,,---,0.00,VWS V14.01,2013-06-30 16:08:00,
2013-06-30 12:13:00,89.9,73.7,29.72,SSE,150,8.0,8.0,59,0.00,,---,0.00,VWS V14.01,2013-06-30 16:13:00,
2013-06-30 12:18:00,89.5,73.8,29.72,East,90,0.0,8.0,60,0.00,,---,0.00,VWS V14.01,2013-06-30 16:18:00,
2013-06-30 12:23:00,89.7,74.0,29.72,SE,138,0.0,8.0,60,0.00,,---,0.00,VWS V14.01,2013-06-30 16:23:00,
2013-06-30 12:28:00,90.1,73.3,29.72,SE,145,0.0,8.0,58,0.00,,---,0.00,VWS V14.01,2013-06-30 16:28:00,
2013-06-30 12:30:00,90.1,73.3,29.71,SSE,158,0.0,8.0,58,0.00,,---,0.00,VWS V14.01,2013-06-30 16:30:00,
2013-06-30 12:33:00,90.1,73.3,29.71,SSE,150,0.0,2.0,58,0.00,,---,0.00,VWS V14.01,2013-06-30 16:33:00,
2013-06-30 12:38:00,90.3,73.5,29.71,SSE,150,0.0,2.0,58,0.00,,---,0.00,VWS V14.01,2013-06-30 16:38:00,
2013-06-30 12:43:00,90.3,74.5,29.71,NNE,25,0.0,2.0,60,0.00,,---,0.00,VWS V14.01,2013-06-30 16:43:00,
2013-06-30 12:48:00,90.5,74.2,29.71,SSE,161,0.0,3.0,59,0.00,,---,0.00,VWS V14.01,2013-06-30 16:48:00,
2013-06-30 12:53:00,90.7,73.9,29.71,SSE,162,0.0,3.0,58,0.00,,---,0.00,VWS V14.01,2013-06-30 16:53:00,
2013-06-30 12:58:00,89.9,74.7,29.71,South,172,0.0,3.0,61,0.00,,---,0.00,VWS V14.01,2013-06-30 16:58:00,
2013-06-30 13:00:00,89.9,73.7,29.70,South,172,0.0,3.0,59,0.00,,---,0.00,VWS V14.01,2013-06-30 17:00:00,
2013-06-30 13:03:00,89.7,73.0,29.70,South,169,0.0,5.0,58,0.00,,---,0.00,VWS V14.01,2013-06-30 17:03:00,
2013-06-30 13:08:00,90.3,74.0,29.70,SSW,200,0.0,5.0,59,0.00,,---,0.00,VWS V14.01,2013-06-30 17:08:00,
2013-06-30 13:13:00,90.1,72.8,29.70,SE,143,0.0,5.0,57,0.00,,---,0.00,VWS V14.01,2013-06-30 17:13:00,
2013-06-30 13:19:00,90.1,73.3,29.71,SE,145,5.0,5.0,58,0.00,,---,0.00,VWS V14.01,2013-06-30 17:19:00,
2013-06-30 13:24:00,90.5,73.7,29.71,South,175,0.0,5.0,58,0.00,,---,0.00,VWS V14.01,2013-06-30 17:24:00,
2013-06-30 13:29:00,90.7,77.3,29.71,SE,133,0.0,5.0,65,0.00,,---,0.00,VWS V14.01,2013-06-30 17:29:00,
2013-06-30 13:30:00,90.3,76.9,29.70,SSE,152,0.0,5.0,65,0.00,,---,0.00,VWS V14.01,2013-06-30 17:30:00,
2013-06-30 13:34:00,89.9,77.0,29.70,SSE,155,0.0,3.0,66,0.00,,---,0.00,VWS V14.01,2013-06-30 17:34:00,
2013-06-30 13:39:00,88.8,76.4,29.70,SSE,160,0.0,3.0,67,0.00,,---,0.00,VWS V14.01,2013-06-30 17:39:00,
2013-06-30 13:44:00,88.4,76.9,29.70,NNW,333,0.0,3.0,69,0.00,,---,0.00,VWS V14.01,2013-06-30 17:44:00,
2013-06-30 13:49:00,87.6,75.3,29.71,WNW,287,3.0,9.0,67,0.00,,---,0.00,VWS V14.01,2013-06-30 17:49:00,
2013-06-30 13:54:00,84.3,73.9,29.71,SW,230,0.0,9.0,71,0.00,,---,0.00,VWS V14.01,2013-06-30 17:54:00,
2013-06-30 13:59:00,81.1,74.0,29.71,WNW,285,7.0,9.0,79,0.09,,---,0.09,VWS V14.01,2013-06-30 17:59:00,
2013-06-30 14:00:00,80.3,73.2,29.73,WNW,292,0.0,9.0,79,0.10,,---,0.10,VWS V14.01,2013-06-30 18:00:00,
2013-06-30 14:04:00,78.3,74.5,29.73,WNW,291,0.0,8.0,88,0.14,,---,0.14,VWS V14.01,2013-06-30 18:04:00,
2013-06-30 14:09:00,76.7,74.2,29.73,WNW,302,0.0,8.0,92,0.24,,---,0.24,VWS V14.01,2013-06-30 18:09:00,
2013-06-30 14:14:00,75.4,73.2,29.73,SSE,161,0.0,8.0,93,0.31,,---,0.31,VWS V14.01,2013-06-30 18:14:00,
2013-06-30 14:19:00,75.1,73.6,29.73,SSE,161,0.0,8.0,95,0.34,,---,0.34,VWS V14.01,2013-06-30 18:19:00,
2013-06-30 14:24:00,74.9,73.4,29.73,SSE,161,0.0,8.0,95,0.35,,---,0.35,VWS V14.01,2013-06-30 18:24:00,
2013-06-30 14:29:00,74.9,73.7,29.73,SSE,161,0.0,8.0,96,0.35,,---,0.35,VWS V14.01,2013-06-30 18:29:00,
2013-06-30 14:30:00,74.9,73.7,29.72,SSE,161,0.0,8.0,96,0.35,,---,0.35,VWS V14.01,2013-06-30 18:30:00,
2013-06-30 14:34:00,75.1,73.9,29.72,SSE,148,0.0,0.0,96,0.35,,---,0.35,VWS V14.01,2013-06-30 18:34:00,
2013-06-30 14:39:00,74.9,73.7,29.72,SE,141,0.0,0.0,96,0.35,,---,0.35,VWS V14.01,2013-06-30 18:39:00,
2013-06-30 14:44:00,74.6,73.7,29.72,SE,141,0.0,0.0,97,0.35,,---,0.35,VWS V14.01,2013-06-30 18:44:00,
2013-06-30 14:49:00,74.4,73.5,29.73,SE,141,0.0,0.0,97,0.35,,---,0.35,VWS V14.01,2013-06-30 18:49:00,
2013-06-30 14:54:00,74.4,73.5,29.73,SE,141,0.0,0.0,97,0.35,,---,0.35,VWS V14.01,2013-06-30 18:54:00,
2013-06-30 14:59:00,74.2,73.3,29.73,SE,141,0.0,0.0,97,0.35,,---,0.35,VWS V14.01,2013-06-30 18:59:00,
2013-06-30 15:00:00,74.2,73.3,29.74,SE,141,0.0,0.0,97,0.35,,---,0.35,VWS V14.01,2013-06-30 19:00:00,
2013-06-30 15:04:00,74.0,73.4,29.74,SE,140,0.0,0.0,98,0.25,,---,0.35,VWS V14.01,2013-06-30 19:04:00,
2013-06-30 15:09:00,73.9,73.3,29.74,SE,140,0.0,0.0,98,0.25,,---,0.35,VWS V14.01,2013-06-30 19:09:00,
2013-06-30 15:14:00,73.9,73.3,29.74,SE,140,0.0,0.0,98,0.25,,---,0.35,VWS V14.01,2013-06-30 19:14:00,
2013-06-30 15:19:00,73.9,73.3,29.73,SE,140,0.0,0.0,98,0.25,,---,0.35,VWS V14.01,2013-06-30 19:19:00,
2013-06-30 15:24:00,73.9,73.3,29.73,SE,140,0.0,0.0,98,0.25,,---,0.35,VWS V14.01,2013-06-30 19:24:00,
2013-06-30 15:29:00,74.0,73.4,29.73,SE,140,0.0,0.0,98,0.25,,---,0.35,VWS V14.01,2013-06-30 19:29:00,
2013-06-30 15:30:00,74.0,73.4,29.73,SE,140,0.0,0.0,98,0.25,,---,0.35,VWS V14.01,2013-06-30 19:30:00,
2013-06-30 15:34:00,74.4,74.1,29.73,SE,140,0.0,0.0,99,0.00,,---,0.35,VWS V14.01,2013-06-30 19:34:00,
2013-06-30 15:39:00,74.9,74.3,29.73,SE,140,0.0,0.0,98,0.00,,---,0.35,VWS V14.01,2013-06-30 19:39:00,
2013-06-30 15:44:00,75.3,75.0,29.73,SE,140,0.0,0.0,99,0.00,,---,0.35,VWS V14.01,2013-06-30 19:44:00,
2013-06-30 15:49:00,75.4,75.1,29.72,SE,140,0.0,0.0,99,0.00,,---,0.35,VWS V14.01,2013-06-30 19:49:00,
2013-06-30 15:54:00,76.0,75.7,29.72,SE,140,0.0,0.0,99,0.00,,---,0.35,VWS V14.01,2013-06-30 19:54:00,
2013-06-30 15:59:00,75.6,75.0,29.72,SE,140,0.0,0.0,98,0.00,,---,0.35,VWS V14.01,2013-06-30 19:59:00,
2013-06-30 16:00:00,75.6,75.0,29.73,SE,140,0.0,0.0,98,0.00,,---,0.35,VWS V14.01,2013-06-30 20:00:00,
2013-06-30 16:04:00,75.8,75.2,29.73,SE,140,0.0,0.0,98,0.00,,---,0.35,VWS V14.01,2013-06-30 20:04:00,
2013-06-30 16:09:00,76.0,75.4,29.73,SE,140,0.0,0.0,98,0.00,,---,0.35,VWS V14.01,2013-06-30 20:09:00,
2013-06-30 16:14:00,76.1,75.5,29.73,SE,140,0.0,0.0,98,0.00,,---,0.35,VWS V14.01,2013-06-30 20:14:00,
2013-06-30 16:19:00,76.3,75.7,29.73,SE,140,0.0,0.0,98,0.00,,---,0.35,VWS V14.01,2013-06-30 20:19:00,
2013-06-30 16:24:00,76.1,75.5,29.73,SE,140,0.0,0.0,98,0.00,,---,0.35,VWS V14.01,2013-06-30 20:24:00,
2013-06-30 16:29:00,76.0,75.4,29.73,SE,140,0.0,0.0,98,0.00,,---,0.35,VWS V14.01,2013-06-30 20:29:00,
2013-06-30 16:30:00,76.0,75.1,29.73,SE,124,1.0,1.0,97,0.00,,---,0.35,VWS V14.01,2013-06-30 20:30:00,
2013-06-30 16:34:00,75.8,74.9,29.73,SE,124,0.0,1.0,97,0.01,,---,0.36,VWS V14.01,2013-06-30 20:34:00,
2013-06-30 16:39:00,76.0,75.1,29.73,SE,124,0.0,1.0,97,0.01,,---,0.36,VWS V14.01,2013-06-30 20:39:00,
2013-06-30 16:44:00,76.0,75.1,29.73,SE,124,0.0,1.0,97,0.01,,---,0.36,VWS V14.01,2013-06-30 20:44:00,
2013-06-30 16:49:00,76.0,75.1,29.73,SE,124,0.0,1.0,97,0.01,,---,0.36,VWS V14.01,2013-06-30 20:49:00,
2013-06-30 16:54:00,76.0,75.1,29.73,SE,124,0.0,1.0,97,0.01,,---,0.36,VWS V14.01,2013-06-30 20:54:00,
2013-06-30 16:59:00,76.1,75.2,29.73,SE,124,0.0,1.0,97,0.01,,---,0.36,VWS V14.01,2013-06-30 20:59:00,
2013-06-30 17:00:00,76.0,74.8,29.73,SE,135,0.0,1.0,96,0.01,,---,0.36,VWS V14.01,2013-06-30 21:00:00,
2013-06-30 17:04:00,76.0,75.1,29.73,SE,124,0.0,0.0,97,0.01,,---,0.36,VWS V14.01,2013-06-30 21:04:00,
2013-06-30 17:09:00,76.1,74.9,29.73,SE,124,0.0,0.0,96,0.01,,---,0.36,VWS V14.01,2013-06-30 21:09:00,
2013-06-30 17:14:00,76.3,75.1,29.73,SSE,152,0.0,0.0,96,0.01,,---,0.36,VWS V14.01,2013-06-30 21:14:00,
2013-06-30 17:19:00,76.5,75.3,29.72,SE,143,0.0,0.0,96,0.01,,---,0.36,VWS V14.01,2013-06-30 21:19:00,
2013-06-30 17:24:00,76.5,75.0,29.72,SE,128,0.0,1.0,95,0.01,,---,0.36,VWS V14.01,2013-06-30 21:24:00,
2013-06-30 17:29:00,76.3,74.8,29.72,SE,128,0.0,1.0,95,0.01,,---,0.36,VWS V14.01,2013-06-30 21:29:00,
2013-06-30 17:30:00,76.4,74.9,29.72,SE,135,0.0,2.0,95,0.01,,---,0.36,VWS V14.01,2013-06-30 21:30:00,
2013-06-30 17:34:00,76.3,74.8,29.72,SE,128,0.0,0.0,95,0.01,,---,0.36,VWS V14.01,2013-06-30 21:34:00,
2013-06-30 17:39:00,76.5,75.0,29.72,SE,128,0.0,0.0,95,0.01,,---,0.36,VWS V14.01,2013-06-30 21:39:00,
2013-06-30 17:44:00,76.5,75.0,29.72,SE,126,0.0,1.0,95,0.01,,---,0.36,VWS V14.01,2013-06-30 21:44:00,
2013-06-30 17:49:00,76.5,74.7,29.72,SE,131,0.0,2.0,94,0.01,,---,0.36,VWS V14.01,2013-06-30 21:49:00,
2013-06-30 17:54:00,76.5,74.7,29.72,SE,137,0.0,3.0,94,0.01,,---,0.36,VWS V14.01,2013-06-30 21:54:00,
2013-06-30 17:59:00,76.7,74.8,29.72,SE,138,0.0,3.0,94,0.01,,---,0.36,VWS V14.01,2013-06-30 21:59:00,
2013-06-30 18:00:00,76.5,74.3,29.71,SE,135,0.0,3.0,93,0.01,,---,0.36,VWS V14.01,2013-06-30 22:00:00,
2013-06-30 18:04:00,76.7,74.5,29.71,SE,131,0.0,0.0,93,0.00,,---,0.36,VWS V14.01,2013-06-30 22:04:00,
2013-06-30 18:09:00,76.7,74.2,29.71,ESE,123,0.0,4.0,92,0.00,,---,0.36,VWS V14.01,2013-06-30 22:09:00,
2013-06-30 18:14:00,76.8,74.6,29.71,SSW,203,0.0,4.0,93,0.00,,---,0.36,VWS V14.01,2013-06-30 22:14:00,
2013-06-30 18:19:00,76.8,74.3,29.71,South,176,0.0,4.0,92,0.00,,---,0.36,VWS V14.01,2013-06-30 22:19:00,
2013-06-30 18:24:00,76.8,74.6,29.71,SE,130,0.0,4.0,93,0.00,,---,0.36,VWS V14.01,2013-06-30 22:24:00,
2013-06-30 18:29:00,76.8,74.3,29.71,SE,144,0.0,4.0,92,0.00,,---,0.36,VWS V14.01,2013-06-30 22:29:00,
2013-06-30 18:30:00,76.8,74.6,29.71,SW,232,5.0,5.0,93,0.00,,---,0.36,VWS V14.01,2013-06-30 22:30:00,
2013-06-30 18:34:00,76.8,74.6,29.71,South,174,0.0,6.0,93,0.00,,---,0.36,VWS V14.01,2013-06-30 22:34:00,
2013-06-30 18:39:00,76.8,74.3,29.71,SE,145,2.0,6.0,92,0.00,,---,0.36,VWS V14.01,2013-06-30 22:39:00,
2013-06-30 18:44:00,76.8,74.3,29.71,SSE,162,0.0,6.0,92,0.00,,---,0.36,VWS V14.01,2013-06-30 22:44:00,
2013-06-30 18:49:00,77.0,74.5,29.72,SSE,152,0.0,6.0,92,0.00,,---,0.36,VWS V14.01,2013-06-30 22:49:00,
2013-06-30 18:54:00,77.2,74.7,29.72,SSE,152,0.0,6.0,92,0.00,,---,0.36,VWS V14.01,2013-06-30 22:54:00,
2013-06-30 18:59:00,77.0,74.2,29.72,SE,143,0.0,6.0,91,0.00,,---,0.36,VWS V14.01,2013-06-30 22:59:00,
2013-06-30 19:00:00,77.2,74.4,29.72,SE,143,0.0,6.0,91,0.00,,---,0.36,VWS V14.01,2013-06-30 23:00:00,
2013-06-30 19:04:00,77.0,74.2,29.72,SE,141,0.0,1.0,91,0.00,,---,0.36,VWS V14.01,2013-06-30 23:04:00,
2013-06-30 19:09:00,77.0,74.2,29.72,East,96,0.0,3.0,91,0.00,,---,0.36,VWS V14.01,2013-06-30 23:09:00,
2013-06-30 19:14:00,77.0,74.2,29.72,East,97,0.0,3.0,91,0.00,,---,0.36,VWS V14.01,2013-06-30 23:14:00,
2013-06-30 19:19:00,77.0,74.5,29.72,South,182,0.0,3.0,92,0.00,,---,0.36,VWS V14.01,2013-06-30 23:19:00,
2013-06-30 19:24:00,77.0,74.5,29.72,SSE,165,0.0,3.0,92,0.00,,---,0.36,VWS V14.01,2013-06-30 23:24:00,
2013-06-30 19:29:00,77.0,74.5,29.72,SSE,165,0.0,3.0,92,0.00,,---,0.36,VWS V14.01,2013-06-30 23:29:00,
2013-06-30 19:30:00,77.0,74.5,29.72,SSE,165,0.0,3.0,92,0.00,,---,0.36,VWS V14.01,2013-06-30 23:30:00,
2013-06-30 19:34:00,77.0,74.5,29.72,SSE,165,0.0,0.0,92,0.00,,---,0.36,VWS V14.01,2013-06-30 23:34:00,
2013-06-30 19:39:00,77.2,74.7,29.72,SE,144,0.0,0.0,92,0.00,,---,0.36,VWS V14.01,2013-06-30 23:39:00,
2013-06-30 19:44:00,77.0,74.5,29.72,SE,144,0.0,0.0,92,0.00,,---,0.36,VWS V14.01,2013-06-30 23:44:00,
2013-06-30 19:49:00,77.0,74.5,29.72,SE,130,0.0,1.0,92,0.00,,---,0.36,VWS V14.01,2013-06-30 23:49:00,
2013-06-30 19:54:00,76.8,74.3,29.72,SE,130,0.0,1.0,92,0.00,,---,0.36,VWS V14.01,2013-06-30 23:54:00,
2013-06-30 19:59:00,76.8,74.3,29.72,SE,130,0.0,1.0,92,0.00,,---,0.36,VWS V14.01,2013-06-30 23:59:00,
2013-06-30 20:00:00,76.8,74.3,29.73,SE,130,0.0,1.0,92,0.00,,---,0.36,VWS V14.01,2013-07-01 00:00:00,
2013-06-30 20:04:00,76.8,74.6,29.73,SE,130,0.0,0.0,93,0.00,,---,0.36,VWS V14.01,2013-07-01 00:04:00,
2013-06-30 20:09:00,76.8,74.6,29.73,SE,130,0.0,0.0,93,0.00,,---,0.36,VWS V14.01,2013-07-01 00:09:00,
2013-06-30 20:14:00,76.7,74.5,29.73,SE,130,0.0,0.0,93,0.00,,---,0.36,VWS V14.01,2013-07-01 00:14:00,
2013-06-30 20:19:00,76.5,74.3,29.74,SE,130,0.0,0.0,93,0.00,,---,0.36,VWS V14.01,2013-07-01 00:19:00,
2013-06-30 20:24:00,76.5,74.3,29.74,South,174,0.0,1.0,93,0.00,,---,0.36,VWS V14.01,2013-07-01 00:24:00,
2013-06-30 20:29:00,76.5,74.7,29.74,SE,133,0.0,1.0,94,0.00,,---,0.36,VWS V14.01,2013-07-01 00:29:00,
2013-06-30 20:30:00,76.5,74.7,29.74,SE,133,0.0,1.0,94,0.00,,---,0.36,VWS V14.01,2013-07-01 00:30:00,
2013-06-30 20:34:00,76.3,74.4,29.74,SE,133,0.0,0.0,94,0.00,,---,0.36,VWS V14.01,2013-07-01 00:34:00,
2013-06-30 20:39:00,76.3,74.8,29.74,SE,133,0.0,0.0,95,0.00,,---,0.36,VWS V14.01,2013-07-01 00:39:00,
2013-06-30 20:44:00,76.3,74.8,29.74,SE,133,0.0,0.0,95,0.00,,---,0.36,VWS V14.01,2013-07-01 00:44:00,
2013-06-30 20:49:00,76.3,74.8,29.74,SSE,152,0.0,6.0,95,0.00,,---,0.36,VWS V14.01,2013-07-01 00:49:00,
2013-06-30 20:54:00,76.1,74.6,29.74,SSE,152,0.0,6.0,95,0.00,,---,0.36,VWS V14.01,2013-07-01 00:54:00,
2013-06-30 20:59:00,76.1,74.6,29.74,South,174,0.0,6.0,95,0.00,,---,0.36,VWS V14.01,2013-07-01 00:59:00,
2013-06-30 21:00:00,76.1,74.9,29.74,South,174,0.0,6.0,96,0.00,,---,0.36,VWS V14.01,2013-07-01 01:00:00,
2013-06-30 21:04:00,76.1,74.9,29.74,South,174,1.0,1.0,96,0.00,,---,0.36,VWS V14.01,2013-07-01 01:04:00,
2013-06-30 21:09:00,76.0,74.8,29.74,South,174,0.0,1.0,96,0.00,,---,0.36,VWS V14.01,2013-07-01 01:09:00,
2013-06-30 21:14:00,76.0,74.8,29.74,SE,134,0.0,1.0,96,0.00,,---,0.36,VWS V14.01,2013-07-01 01:14:00,
2013-06-30 21:19:00,75.8,74.6,29.73,SE,134,0.0,1.0,96,0.00,,---,0.36,VWS V14.01,2013-07-01 01:19:00,
2013-06-30 21:24:00,75.8,74.6,29.73,SE,134,0.0,1.0,96,0.00,,---,0.36,VWS V14.01,2013-07-01 01:24:00,
2013-06-30 21:29:00,75.8,74.6,29.73,SE,134,0.0,1.0,96,0.00,,---,0.36,VWS V14.01,2013-07-01 01:29:00,
2013-06-30 21:30:00,75.8,74.6,29.74,SE,134,0.0,1.0,96,0.00,,---,0.36,VWS V14.01,2013-07-01 01:30:00,
2013-06-30 21:34:00,75.8,74.6,29.74,SSE,152,0.0,2.0,96,0.00,,---,0.36,VWS V14.01,2013-07-01 01:34:00,
2013-06-30 21:39:00,75.6,74.7,29.74,SSE,151,0.0,2.0,97,0.00,,---,0.36,VWS V14.01,2013-07-01 01:39:00,
2013-06-30 21:44:00,75.4,74.2,29.74,SSE,151,0.0,2.0,96,0.00,,---,0.36,VWS V14.01,2013-07-01 01:44:00,
2013-06-30 21:49:00,75.4,74.2,29.75,SSE,158,3.0,5.0,96,0.00,,---,0.36,VWS V14.01,2013-07-01 01:49:00,
2013-06-30 21:54:00,75.3,74.1,29.75,SSE,158,0.0,5.0,96,0.00,,---,0.36,VWS V14.01,2013-07-01 01:54:00,
2013-06-30 21:59:00,75.3,73.8,29.75,SSE,158,0.0,5.0,95,0.00,,---,0.36,VWS V14.01,2013-07-01 01:59:00,
2013-06-30 22:00:00,75.3,73.8,29.76,SSE,158,0.0,5.0,95,0.00,,---,0.36,VWS V14.01,2013-07-01 02:00:00,
2013-06-30 22:04:00,75.1,73.6,29.76,SSE,148,0.0,0.0,95,0.00,,---,0.36,VWS V14.01,2013-07-01 02:04:00,
2013-06-30 22:09:00,75.1,73.6,29.76,SSE,152,0.0,2.0,95,0.00,,---,0.36,VWS V14.01,2013-07-01 02:09:00,
2013-06-30 22:14:00,75.1,73.6,29.76,SE,141,0.0,2.0,95,0.00,,---,0.36,VWS V14.01,2013-07-01 02:14:00,
2013-06-30 22:19:00,74.9,73.4,29.76,SSE,167,0.0,7.0,95,0.00,,---,0.36,VWS V14.01,2013-07-01 02:19:00,
2013-06-30 22:24:00,74.9,73.1,29.76,South,188,0.0,7.0,94,0.00,,---,0.36,VWS V14.01,2013-07-01 02:24:00,
2013-06-30 22:29:00,74.9,73.1,29.76,SSE,168,0.0,7.0,94,0.00,,---,0.36,VWS V14.01,2013-07-01 02:29:00,
2013-06-30 22:30:00,75.0,73.2,29.76,South,180,0.0,7.0,94,0.00,,---,0.36,VWS V14.01,2013-07-01 02:30:00,
2013-06-30 22:34:00,74.9,73.1,29.76,South,171,0.0,7.0,94,0.00,,---,0.36,VWS V14.01,2013-07-01 02:34:00,
2013-06-30 22:39:00,74.9,73.1,29.76,SSE,162,2.0,7.0,94,0.00,,---,0.36,VWS V14.01,2013-07-01 02:39:00,
2013-06-30 22:44:00,74.9,72.7,29.76,SSE,160,0.0,7.0,93,0.00,,---,0.36,VWS V14.01,2013-07-01 02:44:00,
2013-06-30 22:49:00,74.9,72.7,29.76,SSE,161,0.0,7.0,93,0.00,,---,0.36,VWS V14.01,2013-07-01 02:49:00,
2013-06-30 23:00:00,74.9,72.7,29.76,SSE,165,0.0,7.0,93,0.00,,---,0.36,VWS V14.01,2013-07-01 03:00:00,
2013-06-30 23:30:00,74.6,72.8,29.77,SE,143,0.0,2.0,94,0.00,,---,0.36,VWS V14.01,2013-07-01 03:30:00,